EN

Hourly Weather Palczyki

Today, 7 March, Sunday

Time Temperature Precipitation Wind Pressure Humidity
00:00 -5°C° 0 mm 2 mps 725 mmHg 74%
01:00 -5°C° 0 mm 2 mps 725 mmHg 73%
02:00 -5°C° 0 mm 2 mps 725 mmHg 73%
03:00 -5°C° 0 mm 2 mps 724 mmHg 73%
04:00 -5°C° 0 mm 2 mps 724 mmHg 73%
05:00 -5°C° 0 mm 2 mps 723 mmHg 72%
06:00 -6°C° 0 mm 3 mps 723 mmHg 71%
07:00 -5°C° 0 mm 3 mps 723 mmHg 69%
08:00 -4°C° 0 mm 3 mps 723 mmHg 63%
09:00 -2°C° 0 mm 4 mps 723 mmHg 57%
10:00 0°C° 0 mm 5 mps 722 mmHg 51%
11:00 +1°C° 0 mm 4 mps 722 mmHg 50%
12:00 +1°C° 0 mm 4 mps 721 mmHg 48%
13:00 +3°C° 0 mm 4 mps 721 mmHg 47%
14:00 +3°C° 0 mm 4 mps 720 mmHg 50%
15:00 +3°C° 0 mm 4 mps 720 mmHg 53%
16:00 +2°C° 0 mm 3 mps 719 mmHg 55%
17:00 +1°C° 0 mm 3 mps 719 mmHg 60%
18:00 -1°C° 0 mm 3 mps 719 mmHg 65%
19:00 -3°C° 0 mm 2 mps 719 mmHg 70%
20:00 -3°C° 0 mm 2 mps 718 mmHg 71%
21:00 -3°C° 0 mm 2 mps 718 mmHg 72%
22:00 -3°C° 0 mm 2 mps 718 mmHg 73%
23:00 -3°C° 0 mm 2 mps 718 mmHg 77%

Tomorrow, 8 March, Monday

Time Temperature Precipitation Wind Pressure Humidity
00:00 -3°C° 0 mm 2 mps 718 mmHg 81%
01:00 -3°C° 0 mm 2 mps 718 mmHg 85%
02:00 -4°C° 0 mm 2 mps 717 mmHg 86%
03:00 -4°C° 0 mm 2 mps 717 mmHg 87%
04:00 -4°C° 0 mm 2 mps 717 mmHg 89%
05:00 -4°C° 0 mm 2 mps 717 mmHg 89%
06:00 -4°C° 0 mm 2 mps 717 mmHg 89%
07:00 -3°C° 0 mm 2 mps 717 mmHg 89%
08:00 -3°C° 0.2 mm 2 mps 718 mmHg 88%
09:00 -2°C° 0.2 mm 2 mps 718 mmHg 86%
10:00 -1°C° 0.2 mm 3 mps 718 mmHg 85%
11:00 -1°C° 0.3 mm 3 mps 719 mmHg 79%
12:00 -1°C° 0.3 mm 3 mps 719 mmHg 73%
13:00 0°C° 0.3 mm 3 mps 719 mmHg 67%
14:00 -1°C° 0 mm 3 mps 719 mmHg 65%
15:00 -1°C° 0 mm 3 mps 719 mmHg 63%
16:00 -1°C° 0 mm 3 mps 719 mmHg 61%
17:00 -2°C° 0 mm 2 mps 719 mmHg 66%
18:00 -1°C° 0 mm 1 mps 720 mmHg 71%
19:00 -3°C° 0 mm 1 mps 720 mmHg 76%
20:00 -3°C° 0 mm 1 mps 720 mmHg 76%
21:00 -3°C° 0 mm 1 mps 721 mmHg 77%
22:00 -4°C° 0 mm 0 mps 721 mmHg 77%
23:00 -4°C° 0 mm 0 mps 721 mmHg 77%

Day after tomorrow, 9 March, Tuesday

Time Temperature Precipitation Wind Pressure Humidity
00:00 -4°C° 0 mm 0 mps 721 mmHg 78%
01:00 -4°C° 0 mm 0 mps 721 mmHg 78%
02:00 -4°C° 0 mm 0 mps 721 mmHg 79%
03:00 -5°C° 0 mm 0 mps 720 mmHg 80%
04:00 -5°C° 0 mm 0 mps 720 mmHg 81%
05:00 -4°C° 0 mm 0 mps 721 mmHg 80%
06:00 -4°C° 0 mm 0 mps 721 mmHg 79%
07:00 -4°C° 0 mm 0 mps 721 mmHg 79%
08:00 -3°C° 0 mm 0 mps 721 mmHg 74%
09:00 -2°C° 0 mm 0 mps 721 mmHg 69%
10:00 0°C° 0 mm 1 mps 722 mmHg 64%
11:00 +1°C° 0.1 mm 1 mps 722 mmHg 62%
12:00 +1°C° 0.1 mm 1 mps 722 mmHg 60%
13:00 +1°C° 0.1 mm 1 mps 722 mmHg 58%
14:00 +1°C° 0.1 mm 1 mps 721 mmHg 60%
15:00 +1°C° 0.1 mm 1 mps 721 mmHg 62%
16:00 0°C° 0.1 mm 1 mps 721 mmHg 64%
17:00 -1°C° 0 mm 1 mps 721 mmHg 70%
18:00 -2°C° 0 mm 1 mps 721 mmHg 76%
19:00 -3°C° 0 mm 1 mps 721 mmHg 81%
20:00 -3°C° 0 mm 1 mps 721 mmHg 82%
21:00 -4°C° 0 mm 0 mps 722 mmHg 82%
22:00 -4°C° 0 mm 0 mps 722 mmHg 82%
23:00 -4°C° 0 mm 0 mps 722 mmHg 82%

10 March, Wednesday

Time Temperature Precipitation Wind Pressure Humidity
00:00 -4°C° 0 mm 0 mps 722 mmHg 83%
01:00 -5°C° 0 mm 0 mps 721 mmHg 83%
02:00 -5°C° 0 mm 0 mps 721 mmHg 83%
03:00 -5°C° 0 mm 0 mps 721 mmHg 83%
04:00 -5°C° 0 mm 0 mps 721 mmHg 83%
05:00 -5°C° 0 mm 0 mps 721 mmHg 82%
06:00 -5°C° 0 mm 0 mps 722 mmHg 81%
07:00 -4°C° 0 mm 0 mps 722 mmHg 79%
08:00 -3°C° 0 mm 0 mps 722 mmHg 72%
09:00 -1°C° 0 mm 0 mps 722 mmHg 65%
10:00 0°C° 0 mm 0 mps 723 mmHg 58%
11:00 +1°C° 0 mm 0 mps 723 mmHg 55%
12:00 +1°C° 0 mm 0 mps 723 mmHg 51%
13:00 +3°C° 0 mm 1 mps 723 mmHg 48%
14:00 +3°C° 0 mm 1 mps 722 mmHg 48%
15:00 +1°C° 0 mm 0 mps 722 mmHg 48%
16:00 +1°C° 0 mm 0 mps 722 mmHg 49%
17:00 +1°C° 0 mm 1 mps 722 mmHg 55%
18:00 0°C° 0 mm 1 mps 722 mmHg 61%
19:00 -2°C° 0 mm 1 mps 722 mmHg 67%
20:00 -2°C° 0 mm 1 mps 722 mmHg 67%
21:00 -2°C° 0 mm 1 mps 722 mmHg 68%
22:00 -2°C° 0 mm 1 mps 722 mmHg 68%
23:00 -4°C° 0 mm 2 mps 722 mmHg 67%

11 March, Thursday

Time Temperature Precipitation Wind Pressure Humidity
00:00 -4°C° 0 mm 2 mps 721 mmHg 66%
01:00 -4°C° 0 mm 2 mps 721 mmHg 64%
02:00 -3°C° 0 mm 2 mps 721 mmHg 64%
03:00 -3°C° 0 mm 2 mps 720 mmHg 63%
04:00 -3°C° 0 mm 2 mps 720 mmHg 62%
05:00 -4°C° 0 mm 3 mps 719 mmHg 64%
06:00 -2°C° 0 mm 3 mps 719 mmHg 65%
07:00 -2°C° 0 mm 3 mps 719 mmHg 67%
08:00 0°C° 0 mm 3 mps 718 mmHg 65%
09:00 0°C° 0 mm 4 mps 718 mmHg 62%
10:00 +3°C° 0 mm 4 mps 718 mmHg 60%
11:00 +3°C° 0 mm 5 mps 718 mmHg 61%
12:00 +3°C° 0 mm 5 mps 717 mmHg 62%
13:00 +5°C° 0 mm 5 mps 717 mmHg 63%
14:00 +3°C° 0 mm 5 mps 717 mmHg 66%
15:00 +4°C° 0 mm 4 mps 716 mmHg 69%
16:00 +4°C° 0 mm 4 mps 716 mmHg 73%
17:00 +3°C° 0 mm 4 mps 715 mmHg 75%
18:00 +3°C° 0 mm 4 mps 715 mmHg 77%
19:00 +1°C° 0 mm 4 mps 715 mmHg 80%
20:00 +1°C° 0 mm 4 mps 714 mmHg 79%
21:00 +1°C° 0 mm 4 mps 714 mmHg 78%
22:00 +1°C° 0 mm 4 mps 714 mmHg 77%
23:00 +1°C° 0 mm 4 mps 714 mmHg 78%

12 March, Friday

Time Temperature Precipitation Wind Pressure Humidity
00:00 +1°C° 0 mm 4 mps 714 mmHg 79%
01:00 +1°C° 0 mm 4 mps 714 mmHg 79%
02:00 +2°C° 0 mm 3 mps 713 mmHg 81%
03:00 +2°C° 0 mm 3 mps 713 mmHg 84%
04:00 +2°C° 0 mm 2 mps 713 mmHg 86%
05:00 +2°C° 0.1 mm 3 mps 713 mmHg 86%
06:00 +2°C° 0.1 mm 3 mps 713 mmHg 85%
07:00 +3°C° 0.1 mm 4 mps 713 mmHg 85%
08:00 +3°C° 0 mm 5 mps 713 mmHg 81%
09:00 +4°C° 0 mm 6 mps 713 mmHg 76%
10:00 +5°C° 0 mm 7 mps 713 mmHg 71%
11:00 +5°C° 0 mm 7 mps 713 mmHg 69%
12:00 +5°C° 0 mm 7 mps 713 mmHg 66%
13:00 +6°C° 0 mm 7 mps 712 mmHg 64%
14:00 +5°C° 0 mm 7 mps 712 mmHg 65%
15:00 +5°C° 0 mm 6 mps 712 mmHg 66%
16:00 +5°C° 0 mm 5 mps 712 mmHg 68%
17:00 +3°C° 0 mm 5 mps 712 mmHg 71%
18:00 +3°C° 0 mm 4 mps 712 mmHg 75%
19:00 +2°C° 0 mm 3 mps 712 mmHg 78%
20:00 +2°C° 0 mm 3 mps 713 mmHg 78%
21:00 +1°C° 0 mm 3 mps 713 mmHg 78%
22:00 +1°C° 0 mm 3 mps 713 mmHg 78%
23:00 +1°C° 0 mm 3 mps 713 mmHg 79%
Show more

We Need Your Consent

Meteoprog and our Service Providers may store and access personal data such as cookies, device identifiers or other similar technologies on your device and process such data to personalise content and ads, as well as provide social media features and to analyse the traffic.

  • Store and/or access information on your device

    Cookies, device identifiers or other information can be stored or accessed on your device for the purposes indicated above.

  • Personalised ads and content, ad and content measurement, audience insights, and products development

    Ads and content can be personalised based on a profile. More data can be added to better personalise ads and content. Ad and content performance can be measured. Insights about the audience who saw the ads and content can be derived. Such data can be used to develop or improve user’s experience, systems and software.

By clicking ‘I Agree’ you will allow the use of indicated cookies, device identifiers, web beacons or other similar technologies. Your settings can be changed in the browser on your device.

For certain purposes, legitimate interests may be relied on, rather than consent. You can read more about this in our Privacy and Cookie Policy.